Showing default

MMS 3, 40484

Orbit data source: Space-Track

MMS 3, 40484 is a payload satellite owned by GSFC (US) in HEO that was launched on Fri, 13 Mar 2015 UTC via an ATLAS V 421 launch vehicle from the Air Force Eastern Test Range (AFETR). Payload-class satellites include a variety of spacecraft equipped with specific instruments for various scientific and technological missions. These include communications satellites like Starlink; space stations such as the ISS; scientific satellites like the Hubble; Earth observation satellites from companies like Planet Labs, Umbra, and HawkEye 360; GPS; miniature CubeSats for education and research; and military/defense satellites.

Loading next visibility...
Identifier
40484, 2015-011C
Orbit
HEO
Country
Flag of USUS
Related business
Manufacturer
GSFC
Mission
Operational Civil Science
Bus & Motor
MMS-SMART, GSFC
Mass
1,360 kg wet, 1,000 kg dry
Launch date (UTC)
2015-03-13 (11 years ago)
Launch vehicle
ATLAS V 421
Launch site
Air Force Eastern Test Range (AFETR)
Object type
Payload
Rocket body
Debris
Shape & HBR
Oct Cyl + 1 Ant, 56.1 m
Radar Cross Section
24.177 m², Large (>1 m²)

Expand to show TLE details & history
Last TLE update: 12 hours ago

TLE from 12 hours ago
0 MMS 3
1 40484U 15011C   25340.66670139 -.00000559  00000-0  00000-0 0  9990
2 40484  69.2077 351.5996 8508881 163.2717 101.8172  0.28353362  1368
Epoch: 2025-12-06T16:00Z
TLE epoch observation values (Epoch: 2025-12-06T16:00:03.000Z)
Latitude
-27.99827°
Longitude
23.8892°
Altitude
150,852.509 km
Speed
0.999 km/s
True Right ascension
22h 38m 22s
True Declination
-27° 59' 31"
Sunlit
Object was in daylight at epoch
Visualization orbit readout
Latitude
Unknown
Longitude
Unknown
Altitude
Unknown
Speed
Unknown
Apparent Right ascension
Unknown
Apparent Declination
Unknown
Sunlit
N/A
Visualization observer readout
Local Sidereal Time
01:43:00
Azimuth
Unknown
Elevation
Unknown
Doppler factor
Unknown
Orbital elements
Apogee altitude
174,773.229 km
Perigee altitude
8,215.843 km
Semi-major axis
97,872.673 km
Eccentricity
0.85089
Inclination
69.2077°
RAAN
351.5996°
Arg. of periapsis
163.2717°
True anomaly
166.85208°
Mean anomaly
101.8172°
Eccentric anomaly
135.80348°
Mean motion
0.07088 °/min
Orbital period
5,078.69 mins
BSTAR
0
Loading maneuver chart data...
Computing Atmospheric mass density...
Loading historical data...
Loading historical data...
Loading historical data...
Loading historical data...
Loading historical data...
Loading historical data...
Loading historical data...
Other satellites on launch #11 in the year 2015 (2015-03-13 UTC)

Documentation

Showing up to 5 results
|